Miscellaneous Local Product
Issued by NWS Hastings, NE

Current Version | Previous Version | Text Only | Print | Product List | Glossary On
Versions: 1 2 3 4 5 6 7 8 9 10 11 12 13 14 15 16 17 18 19 20 21 22 23 24 25 26 27 28 29 30 31 32 33 34 35 36 37 38 39 40 41 42 43 44 45 46 47 48 49 50
000
AXUS43 KGID 240102
MISGRI

GID CWA HOURLY WEATHER ROUNDUP
NATIONAL WEATHER SERVICE HASTINGS NE
800 PM CDT THU MAR 23 2017

NOTE: "FAIR" INDICATES FEW OR NO CLOUDS BELOW 12,000 FEET WITH NO
SIGNIFICANT WEATHER AND/OR OBSTRUCTIONS TO VISIBILITY.

...SOUTH CENTRAL NEBRASKA...

CITY           SKY/WX    TMP DP  RH WIND       PRES   REMARKS
GRAND ISLAND   CLEAR     68  58  70 SE20G28   29.55F
HASTINGS       CLOUDY    69  57  65 S17       29.56F
KEARNEY        CLOUDY    72  55  56 S24G31    29.52S
ORD            CLOUDY    61  55  81 CALM      29.55S
YORK           PTCLDY    68  55  64 S18G24    29.59F
AURORA         PTCLDY    68  56  65 S17G25    29.56F
LEXINGTON      CLEAR     76  50  39 S21       29.48R
HOLDREGE       CLOUDY    76  48  36 S25G36    29.51R
HEBRON         CLOUDY    71  55  57 S16G24    29.62R

...NEBRASKA PANHANDLE...

CITY           SKY/WX    TMP DP  RH WIND       PRES   REMARKS
CHADRON        LGT RAIN  47  43  86 N21G30    29.79R
ALLIANCE       CLOUDY    52  42  69 N31G38    29.66S
SCOTTSBLUFF    CLOUDY    52  44  74 N26G38    29.65R
SIDNEY         LGT RAIN  62  37  39 N23G40    29.59R

...WESTERN AND NORTH CENTRAL NEBRASKA...

CITY           SKY/WX    TMP DP  RH WIND       PRES   REMARKS
VALENTINE      CLOUDY    62  42  47 N5        29.67R
AINSWORTH      PTCLDY    54  49  83 NE7       29.64R
ONEILL         CLOUDY    55  55  99 NE5       29.64S FOG
BROKEN BOW     TSTM      59  32  36 N18G25    29.56R
IMPERIAL       CLOUDY    73  27  18 SW6       29.46F
NORTH PLATTE   TSTM      67  53  61 SE14G25   29.52R
MCCOOK         CLOUDY    79  49  34 S26G37    29.45R

...EASTERN NEBRASKA...

CITY           SKY/WX    TMP DP  RH WIND       PRES   REMARKS
NORFOLK        CLOUDY    59  50  72 SE12      29.60F
SO SIOUX CITY  CLOUDY    58  44  60 SE9       29.65R
TEKAMAH        CLOUDY    67  50  54 S14       29.64S
COLUMBUS       CLOUDY    66  55  68 S10G20    29.62R
ALBION         CLOUDY    65  55  68 E10       29.58F
OMAHA EPPLEY   CLOUDY    73  51  46 S15       29.64F
OFFUTT AFB     CLOUDY    73  51  46 SE10      29.64F
MILLARD        CLOUDY    73  54  51 S8        29.65F
LINCOLN        PTCLDY    71  53  52 S14       29.64F
NEBRASKA CITY  CLOUDY    73  42  33 S16       29.67F
BEATRICE       CLOUDY    72  53  51 S13G18    29.64S
FALLS CITY     MOCLDY    74  50  42 S15G24    29.69R

...NORTHERN KANSAS...

CITY           SKY/WX    TMP DP  RH WIND       PRES   REMARKS
GOODLAND       CLOUDY    78  23  13 SW20G26   29.48R
HILL CITY      CLOUDY    76  51  41 S21G31    29.54R
NORTON         CLEAR     75  43  31 S28G38    29.50
PHILLIPSBURG   CLEAR     77  48  36 S22G29    29.55R
HAYS             N/A     75  52  44 S26G35    29.56
RUSSELL        CLOUDY    75  50  41 S26G41    29.57S
CONCORDIA      CLOUDY    73  55  53 S15G23    29.63R
SALINA         PTCLDY    78  50  37 S15G29    29.64R
TOPEKA         CLEAR     73  50  44 S20G28    29.73S



USA.gov is the U.S. government's official web portal to all federal, state and local government web resources and services.